Theta_e
288 287 287 287 286 286 286 286 286 287 286 286 286 285 283 283 282 283 282 283 281 283
288 287 287 287 286 286 286 289 286 285 285 285 285 285 283 282 281 282 281 281 281 283
288 288 287 286 285 285 285 285 285 285 284 284 284 283 282 281 281 280 280 281 281 282
287 287 286 285 285 284 284 285 285 285 285 285 284 282 280 280 280 279 280 281 281 282
286 285 284 284 285 285 284 285 285 285 285 285 284 281 280 279 279 279 279 280 281 281
284 284 283 283 284 285 285 285 284 285 284 284 283 281 280 279 280 279 280 281 281 282
283 284 283 284 284 284 285 284 284 284 284 283 282 282 281 280 279 279 281 282 284 284
285 285 285 284 284 284 284 284 285 284 283 282 281 283 281 280 280 280 280 282 283 284
286 286 284 284 285 284 283 283 283 282 282 279 283 284 284 282 280 280 280 280 281 283
287 286 284 285 284 283 281 281 281 281 280 278 279 284 283 283 280 279 280 280 280 282
287 286 284 283 283 281 281 280 280 280 280 279 281 283 283 283 280 279 280 280 281 281
286 284 283 281 280 280 279 279 279 280 280 279 279 283 282 282 279 279 280 281 281 282
286 284 282 279 279 278 278 278 279 278 279 281 278 281 282 282 280 279 279 280 281 283
285 283 282 280 279 277 277 277 276 277 277 278 279 279 282 283 281 280 279 279 280 282
Wind_Speed
7 3 3 4 3 4 3 5 6 6 6 7 7 4 3 2 3 4 5 7 5 7
6 6 5 6 5 3 5 5 6 7 6 7 7 5 5 3 4 5 5 6 7 7
6 6 6 6 7 6 6 6 7 7 6 7 6 7 5 4 5 7 7 6 8 9
6 6 6 6 6 6 6 7 7 6 6 6 7 6 4 5 7 12 10 8 9 11
6 6 6 6 7 7 7 7 7 7 6 6 6 3 5 6 10 13 11 11 11 12
6 6 6 7 7 7 7 8 7 6 6 6 5 4 6 6 12 12 11 11 12 12
7 6 6 7 7 7 7 8 8 7 7 6 4 5 7 11 13 12 12 13 10 10
7 6 7 7 7 7 8 9 8 7 8 6 5 7 11 12 12 13 13 12 11 10
6 6 7 7 8 8 8 9 7 8 8 7 5 19 25 22 12 12 12 12 12 11
6 6 7 7 9 11 8 8 8 9 8 4 6 24 27 27 11 12 11 12 12 11
6 7 7 9 11 10 9 9 8 11 9 7 9 25 27 27 14 12 13 13 12 11
6 8 6 9 10 9 11 10 11 12 12 12 11 25 27 22 13 13 15 13 12 13
6 7 6 7 7 6 8 9 10 12 11 17 12 22 28 24 10 13 12 13 13 19
7 7 5 5 4 5 7 7 7 10 10 11 14 15 29 29 12 11 11 11 11 11
Wind_Direction
26 13 348 349 348 354 342 323 331 342 342 334 325 349 343 328 317 316 300 293 276 279
9 2 357 2 2 344 337 336 342 333 333 325 330 321 313 336 329 315 279 283 282 287
12 13 11 8 357 350 335 332 329 325 325 324 330 320 11 1 311 308 297 288 286 291
18 11 12 1 345 337 332 324 317 313 318 322 319 3 22 332 318 322 306 298 295 294
20 7 7 348 333 331 324 317 306 315 318 320 321 53 352 322 326 319 312 308 302 290
2 3 352 337 327 329 324 317 316 319 319 314 8 7 342 324 320 317 310 302 294 285
355 355 347 335 334 333 324 320 316 320 317 329 46 11 342 332 323 320 317 314 310 307
2 354 349 342 332 330 328 326 322 332 328 357 46 2 354 341 335 330 324 321 322 316
1 351 348 339 333 333 332 331 338 341 346 29 17 5 1 356 346 326 320 320 321 316
0 350 345 339 348 346 342 342 344 350 359 38 7 8 2 355 344 331 325 321 316 314
357 343 351 2 356 0 354 353 352 356 353 3 357 8 358 354 341 336 334 326 314 312
353 355 1 16 3 9 3 360 1 358 355 357 350 0 356 356 344 338 335 329 321 324
353 358 24 22 20 4 4 0 356 352 351 351 346 353 357 1 342 339 339 334 333 332
340 350 47 29 29 9 355 347 344 351 344 346 350 350 358 1 353 347 340 339 338 339